Canby, MN

2:30 PM CST on January 18, 2017 (GMT -0600)
Canby

Weather History for KCNB - October, 2012

Change the Weather History Date:

Sunday, October 14, 2012

  Actual Average (KMML) Record (KMML)
Temperature  
Mean Temperature 49 °F -  
Max Temperature 59 °F 60 °F 86 °F (1953)
Min Temperature 39 °F 39 °F 21 °F (2006)
Degree Days  
Heating Degree Days 16    
Moisture  
Dew Point 33 °F    
Average Humidity 59    
Maximum Humidity 77    
Minimum Humidity 37    
Precipitation  
Precipitation 0.00 in - - ()
Sea Level Pressure  
Sea Level Pressure 29.88 in    
Wind  
Wind Speed 11 mph (NW)    
Max Wind Speed 20 mph    
Max Gust Speed 26 mph    
Visibility 10 miles    
Events      
Averages and records for this station are not official NWS values.
T = Trace of Precipitation, MM = Missing Value Source: NWS Daily Summary

Daily Weather History Graph

Daily Weather History Graph

Search for Another Location

Airport or City:

Trip Planner

Search our weather history database for the weather conditions in past years. The results will help you decide how hot, cold, wet, or windy it might be!

Date:

Astronomy

Oct. 14, 2012 Rise Set
Actual Time 7:39 AM CDT 6:41 PM CDT
Civil Twilight 7:10 AM CDT 7:10 PM CDT
Nautical Twilight 6:36 AM CDT 7:44 PM CDT
Astronomical Twilight 6:02 AM CDT 8:18 PM CDT
Moon 6:39 AM CDT (10/14) 6:01 PM CDT (10/14)
Length of Visible Light 12h 00m
Length of Day
11h 01m
Waning Crescent, 1% of the Moon is Illuminated
Oct 14
Waning Crescent
Oct 15
New
Oct 21
First Quarter
Oct 29
Full
Nov 6
Last Quarter

Hourly Weather History & Observations

Time (CDT) Temp. Windchill Dew Point Humidity Pressure Visibility Wind Dir Wind Speed Gust Speed Precip Events Conditions
12:14 AM 45.3 °F 40.1 °F 38.5 °F 77% 29.77 in 10.0 mi NW 10.4 mph - N/A   Clear
12:35 AM 45.3 °F 41.1 °F 37.9 °F 75% 29.79 in 10.0 mi NW 8.1 mph - N/A   Clear
12:55 AM 46.0 °F 41.4 °F 37.0 °F 71% 29.79 in 10.0 mi NW 9.2 mph - N/A   Clear
1:14 AM 45.9 °F 40.8 °F 36.5 °F 70% 29.79 in 10.0 mi NW 10.4 mph - N/A   Clear
1:35 AM 45.5 °F 39.6 °F 35.6 °F 68% 29.80 in 10.0 mi NW 12.7 mph 17.3 mph N/A   Clear
1:55 AM 44.8 °F 39.0 °F 35.1 °F 69% 29.80 in 10.0 mi NW 11.5 mph - N/A   Clear
2:14 AM 44.6 °F 38.8 °F 34.3 °F 67% 29.80 in 10.0 mi NW 11.5 mph - N/A   Clear
2:35 AM 43.7 °F 37.7 °F 34.2 °F 69% 29.80 in 10.0 mi NW 11.5 mph - N/A   Clear
2:54 AM 43.2 °F 37.4 °F 33.8 °F 70% 29.81 in 10.0 mi NW 10.4 mph - N/A   Clear
3:14 AM 42.8 °F 36.6 °F 32.9 °F 68% 29.81 in 10.0 mi NW 11.5 mph - N/A   Clear
3:34 AM 42.8 °F 36.2 °F 32.4 °F 67% 29.81 in 10.0 mi NW 12.7 mph - N/A   Clear
3:54 AM 43.0 °F 36.4 °F 32.2 °F 66% 29.81 in 10.0 mi NW 12.7 mph 18.4 mph N/A   Clear
4:15 AM 42.6 °F 36.8 °F 32.0 °F 66% 29.83 in 10.0 mi NW 10.4 mph - N/A   Clear
4:35 AM 41.9 °F 36.3 °F 32.0 °F 68% 29.83 in 10.0 mi NW 9.2 mph - N/A   Clear
4:54 AM 41.0 °F 35.8 °F 32.0 °F 70% 29.83 in 10.0 mi NW 8.1 mph - N/A   Clear
5:15 AM 40.5 °F 34.1 °F 31.8 °F 71% 29.84 in 10.0 mi NW 10.4 mph - N/A   Clear
5:34 AM 40.3 °F 33.9 °F 31.8 °F 72% 29.84 in 10.0 mi NW 10.4 mph - N/A   Clear
5:54 AM 40.1 °F 33.6 °F 31.8 °F 72% 29.84 in 10.0 mi NW 10.4 mph - N/A   Clear
6:15 AM 40.5 °F 32.1 °F 31.8 °F 71% 29.85 in 10.0 mi NW 16.1 mph - N/A   Clear
6:34 AM 40.8 °F 32.9 °F 31.6 °F 70% 29.86 in 10.0 mi NW 15.0 mph - N/A   Clear
6:54 AM 40.5 °F 34.1 °F 31.5 °F 70% 29.86 in 10.0 mi NW 10.4 mph - N/A   Clear
7:14 AM 39.9 °F 33.4 °F 31.1 °F 71% 29.86 in 10.0 mi NW 10.4 mph - N/A   Clear
7:34 AM 40.1 °F 33.2 °F 31.3 °F 71% 29.86 in 10.0 mi NW 11.5 mph - N/A   Clear
7:55 AM 40.5 °F 33.6 °F 31.5 °F 70% 29.87 in 10.0 mi NW 11.5 mph - N/A   Clear
8:14 AM 40.1 °F 33.2 °F 31.5 °F 71% 29.88 in 10.0 mi NW 11.5 mph - N/A   Clear
8:34 AM 39.6 °F 31.7 °F 31.5 °F 73% 29.88 in 10.0 mi NW 13.8 mph - N/A   Clear
8:55 AM 39.6 °F 31.7 °F 31.5 °F 73% 29.88 in 10.0 mi NW 13.8 mph - N/A   Clear
9:14 AM 41.4 °F 33.3 °F 31.8 °F 69% 29.89 in 10.0 mi NW 16.1 mph - N/A   Clear
9:34 AM 43.0 °F 35.7 °F 32.0 °F 65% 29.88 in 10.0 mi NW 15.0 mph - N/A   Clear
9:55 AM 44.6 °F 36.9 °F 32.0 °F 61% 29.89 in 10.0 mi NW 18.4 mph 21.9 mph N/A   Clear
10:14 AM 45.5 °F 38.3 °F 32.4 °F 60% 29.90 in 10.0 mi NW 17.3 mph - N/A   Clear
10:34 AM 47.3 °F - 32.9 °F 57% 29.90 in 10.0 mi NW 17.3 mph 23.0 mph N/A   Clear
10:54 AM 48.9 °F - 33.1 °F 54% 29.91 in 10.0 mi NNW 16.1 mph 24.2 mph N/A   Clear
11:14 AM 50.2 °F - 32.9 °F 52% 29.91 in 10.0 mi NW 18.4 mph 24.2 mph N/A   Clear
11:34 AM 51.1 °F - 32.5 °F 49% 29.91 in 10.0 mi NNW 13.8 mph 24.2 mph N/A   Clear
11:54 AM 52.7 °F - 32.2 °F 46% 29.90 in 10.0 mi NNW 17.3 mph - N/A   Clear
12:15 PM 53.6 °F - 32.0 °F 44% 29.91 in 10.0 mi NNW 16.1 mph 25.3 mph N/A   Clear
12:34 PM 54.5 °F - 32.0 °F 42% 29.91 in 10.0 mi NW 17.3 mph 25.3 mph N/A   Clear
12:54 PM 55.4 °F - 31.1 °F 40% 29.90 in 10.0 mi NW 19.6 mph 26.5 mph N/A   Clear
1:15 PM 56.1 °F - 31.3 °F 39% 29.90 in 10.0 mi NNW 15.0 mph 23.0 mph N/A   Clear
1:34 PM 56.7 °F - 31.5 °F 38% 29.90 in 10.0 mi NW 15.0 mph 21.9 mph N/A   Clear
1:55 PM 57.6 °F - 31.3 °F 37% 29.90 in 10.0 mi NNW 16.1 mph 24.2 mph N/A   Clear
2:15 PM 57.9 °F - 32.0 °F 37% 29.90 in 10.0 mi NW 17.3 mph 26.5 mph N/A   Clear
2:34 PM 58.3 °F - 32.5 °F 38% 29.90 in 10.0 mi NNW 16.1 mph 24.2 mph N/A   Clear
2:54 PM 57.7 °F - 32.9 °F 39% 29.90 in 10.0 mi NNW 17.3 mph - N/A   Clear
3:15 PM 59.0 °F - 33.3 °F 38% 29.89 in 10.0 mi NW 15.0 mph 19.6 mph N/A   Clear
3:34 PM 58.6 °F - 33.4 °F 39% 29.89 in 10.0 mi NNW 17.3 mph 21.9 mph N/A   Clear
3:54 PM 59.0 °F - 33.8 °F 39% 29.90 in 10.0 mi North 13.8 mph - N/A   Clear
4:14 PM 59.0 °F - 34.2 °F 39% 29.90 in 10.0 mi NW 13.8 mph 19.6 mph N/A   Clear
4:35 PM 59.4 °F - 34.3 °F 39% 29.90 in 10.0 mi NW 15.0 mph 21.9 mph N/A   Clear
4:54 PM 59.2 °F - 34.7 °F 40% 29.90 in 10.0 mi NW 11.5 mph 16.1 mph N/A   Clear
5:14 PM 59.0 °F - 34.3 °F 40% 29.91 in 10.0 mi NW 11.5 mph 18.4 mph N/A   Clear
5:34 PM 58.8 °F - 34.5 °F 40% 29.91 in 10.0 mi NNW 12.7 mph - N/A   Clear
5:54 PM 57.9 °F - 34.7 °F 42% 29.91 in 10.0 mi NNW 8.1 mph - N/A   Clear
6:15 PM 56.5 °F - 34.7 °F 44% 29.91 in 10.0 mi NNW 6.9 mph - N/A   Clear
6:34 PM 54.7 °F - 34.7 °F 47% 29.91 in 10.0 mi NNW 4.6 mph - N/A   Clear
6:55 PM 51.6 °F - 34.2 °F 51% 29.91 in 10.0 mi NW 4.6 mph - N/A   Clear
7:14 PM 48.9 °F - 33.4 °F 55% 29.92 in 10.0 mi WNW 5.8 mph - N/A   Clear
7:35 PM 48.4 °F - 33.1 °F 56% 29.92 in 10.0 mi West 4.6 mph - N/A   Clear
7:54 PM 46.4 °F 43.5 °F 32.7 °F 59% 29.93 in 10.0 mi West 5.8 mph - N/A   Clear
8:15 PM 44.6 °F 41.4 °F 32.4 °F 62% 29.93 in 10.0 mi West 5.8 mph - N/A   Clear
8:35 PM 43.9 °F 41.3 °F 32.4 °F 64% 29.93 in 10.0 mi West 4.6 mph - N/A   Clear
8:55 PM 44.6 °F 42.2 °F 32.9 °F 64% 29.94 in 10.0 mi West 4.6 mph - N/A   Clear
9:14 PM 44.6 °F 42.2 °F 33.1 °F 64% 29.94 in 10.0 mi West 4.6 mph - N/A   Clear
9:34 PM 43.9 °F 40.5 °F 33.3 °F 66% 29.95 in 10.0 mi West 5.8 mph - N/A   Clear
9:54 PM 43.9 °F 40.5 °F 33.3 °F 66% 29.94 in 10.0 mi West 5.8 mph - N/A   Clear
10:14 PM 43.0 °F 39.5 °F 32.9 °F 68% 29.95 in 10.0 mi West 5.8 mph - N/A   Clear
10:35 PM 42.3 °F 38.6 °F 32.9 °F 69% 29.95 in 10.0 mi West 5.8 mph - N/A   Clear
10:54 PM 41.5 °F 37.8 °F 33.1 °F 72% 29.95 in 10.0 mi West 5.8 mph - N/A   Clear
11:14 PM 39.7 °F 36.5 °F 32.4 °F 75% 29.95 in 10.0 mi West 4.6 mph - N/A   Clear
11:34 PM 39.2 °F 35.9 °F 32.0 °F 75% 29.96 in 10.0 mi West 4.6 mph - N/A   Clear